ARIANE 5 DEB, 48422

Orbit data source: Space-Track

ARIANE 5 DEB, 48422 is space debris in HEO originally from a launch on Fri, 05 Oct 2007 UTC launched from the French Guiana (FRGUI). Debris objects in space refer to the collection of defunct objects orbiting the Earth. Examples of debris include non-operational satellites, rocket bodies, and fragments generated from explosions, collisions, or faulty payload assembly.

Loading next visibility...
Identifier
48422, 2007-044E
Orbit
HEO
Last TLE update
22 hours ago
Origin
Manufacturer
Unknown
Mission
Spacecraft
Bus & Motor
Unknown
Mass
Unknown
Launch date (UTC)
2007-10-05 (18 years ago)
Launch vehicle
Unknown
Launch site
French Guiana (FRGUI)
Object type
Payload
Rocket body
Debris
Shape & HBR
Unknown
Radar Cross Section
Medium (>0.1 m² and <1 m²)

Expand to show TLE details & history

TLE from 22 hours ago
0 ARIANE 5 DEB
1 48422U 07044E   25181.44724566  .00000043  00000-0  55426-3 0  9992
2 48422   3.6196 176.2311 7200459  63.1509 351.4663  2.28987624 96864
Epoch: 2025-06-30T10:44Z
TLE epoch observation values (Epoch: 2025-06-30T10:44:02.025Z)
Latitude
-0.00001°
Longitude
95.9946°
Altitude
2,492.154 km
Speed
8.571 km/s
True Right ascension
11h 43m 02s
True Declination
0° 00' 00"
Sunlit
Object was in daylight at epoch
Visualization orbit readout
Latitude
-0.87777°
Longitude
-70.33438°
Altitude
15,267.876 km
Speed
4.52 km/s
Apparent Right ascension
01h 26m 55s
Apparent Declination
-12° 43' 27"
Sunlit
Object is in daylight
Visualization observer readout
Local Sidereal Time
20:45:48
Azimuth
112.487° ESE
Elevation
6.377°
Doppler factor
1
Orbital elements
Apogee altitude
35,452.748 km
Perigee altitude
430.244 km
Semi-major axis
24,319.633 km
Eccentricity
0.72005
Inclination
3.6196°
RAAN
176.2311°
Arg. of periapsis
63.1509°
True anomaly
Unknown
Mean anomaly
351.4663°
Eccentric anomaly
Unknown
Mean motion
0.57228 °/min
Orbital period
629.06 mins
BSTAR
0.00055426
Loading maneuver chart data...
Loading SW <> Apogee altitude chart data...
Loading historical data...
Loading historical data...
Loading historical data...
Loading historical data...
Loading historical data...
Loading historical data...
Loading historical data...
Other satellites on launch #44 in the year 2007 (2007-10-05 UTC)

ARIANE 5 DEB Visibility forecast

Observer location: undefined°, undefined°

Span
Click to sort rows by Start time (UTC) header in descending order
Start Az.
Max El. time (UTC)
Max El. Az.
Max El.
End time (UTC)
End Az.
395 mins2025-07-01 10:59:34.014Z111.586° ESE2025-07-01 15:44:34.014Z137.853° SSE25.141°2025-07-01 17:34:34.014Z125.904° SE
|